[[{"header":{"parameterUnit":"m.s-1","parameterCategory":1,"la1":30.2991,"la2":30.254,"lo1":-89.0895,"lo2":-89.0444,"dx":0.0017,"dy":0.0017,"nx":28,"ny":28,"refTime":"2022-11-07T09:00:00:Z","depth":0,"parameterNumber":2,"parameterNumberName":"U-component_of_WINDS"},"data":[0,0,0,0,0,0,0,0,0,0,0,0,0,0,0,0,0,0,0,0,0,0,0,0,0,0,0,0,0,0,0,0,0,0,0,0,0,0,0,0,0,0,0,0,0,0,0,0,0,0,0,0,0,0,0,0,0,0,-2.6587,-2.6587,0,-2.6554,-2.6554,-2.6553,-2.6523,-2.6523,-2.6523,-2.6522,-2.649,-2.6489,-2.6488,0,0,0,0,0,0,0,0,0,0,0,0,0,-2.6628,-2.6628,-2.6587,-2.6587,-2.6586,-2.6554,-2.6554,-2.6553,-2.6524,-2.6523,-2.6523,-2.6522,-2.649,-2.6489,-2.6488,0,0,0,0,0,0,0,0,0,0,0,0,0,-2.6604,-2.6627,-2.6587,-2.6567,-2.6565,-2.6554,-2.6554,-2.6553,-2.6524,-2.6523,-2.6523,-2.6522,-2.649,-2.6489,-2.6488,-2.6494,0,0,-2.6486,-2.6485,0,0,0,0,0,0,0,0,-2.6606,-2.6603,-2.6571,-2.6569,-2.6566,-2.6542,-2.6556,-2.6533,-2.6524,-2.654,-2.6522,-2.6522,-2.6508,-2.6505,-2.65,-2.6492,-2.6491,-2.6486,-2.6485,-2.6485,-2.6485,0,0,0,0,0,0,0,-2.6607,-2.6604,-2.6574,-2.657,-2.6568,-2.6562,-2.6558,-2.6552,-2.6527,-2.6538,-2.6536,-2.6532,-2.6506,-2.6501,-2.6499,-2.649,-2.6486,-2.6485,-2.6485,-2.6484,-2.649,-2.6491,0,0,0,0,0,0,-2.6612,-2.6606,-2.6575,-2.6573,-2.6585,-2.6561,-2.6557,-2.6551,-2.6527,-2.6523,-2.6533,-2.6531,-2.6503,-2.65,-2.6498,-2.6505,-2.6485,-2.6484,-2.6484,-2.649,-2.649,-2.6491,0,0,0,0,0,0,-2.6613,-2.6609,-2.6576,-2.6589,-2.6584,-2.6561,-2.6554,-2.655,-2.6545,-2.6523,-2.6519,-2.6532,-2.6502,-2.6499,-2.6496,-2.6504,-2.6484,-2.6483,-2.6489,-2.649,-2.6491,-2.6519,0,0,0,0,0,0,-2.6614,-2.661,-2.661,-2.6589,-2.6583,-2.6574,-2.6555,-2.655,-2.6543,-2.6541,-2.6521,-2.6517,-2.6502,-2.6498,-2.6495,-2.6502,-2.6482,-2.6488,-2.6489,-2.6491,-2.6517,-2.6521,-2.6524,0,0,0,0,0,-2.6616,-2.6619,-2.661,-2.6607,-2.6584,-2.6574,-2.6571,-2.6553,-2.6544,-2.6546,-2.6532,-2.6518,-2.6504,-2.6497,-2.6495,-2.6502,-2.6487,-2.6489,-2.649,-2.6516,-2.652,-2.6524,0,0,0,0,0,0,-2.664,-2.6615,-2.6606,-2.6602,-2.6591,-2.6569,-2.6569,-2.6557,-2.6548,-2.6546,-2.6525,-2.6521,-2.6521,-2.6511,-2.6504,-2.6508,-2.6494,-2.6495,-2.6514,-2.6518,-2.6521,-2.6523,-2.6482,0,0,0,0,0,-2.6646,-2.6639,-2.6618,-2.6617,-2.6612,-2.6592,-2.6587,-2.6575,-2.6562,-2.6557,-2.6543,-2.6532,-2.6526,-2.6521,-2.6514,-2.6516,-2.6513,-2.652,-2.6524,-2.6526,-2.6527,-2.6532,-2.6535,-2.6496,-2.6496,-2.6496,0,0,-2.6656,-2.6641,-2.6638,-2.6622,-2.6611,-2.6607,-2.6588,-2.6583,-2.658,-2.6556,-2.6553,-2.6543,-2.6529,-2.653,-2.653,-2.6522,-2.6538,-2.6528,-2.6531,-2.653,-2.6534,-2.6537,-2.6541,-2.6497,-2.6497,-2.6497,0,0,-2.6672,-2.666,-2.6659,-2.665,-2.6635,-2.6623,-2.6623,-2.6604,-2.6597,-2.6594,-2.6577,-2.6574,-2.6562,-2.6555,-2.6549,-2.6569,-2.6556,-2.6567,-2.6584,-2.6588,-2.6591,-2.6594,-2.6603,-2.6606,-2.6568,-2.6568,-2.6568,0,-2.6686,-2.6678,-2.666,-2.6657,-2.6652,-2.6632,-2.6632,-2.6624,-2.6608,-2.6605,-2.6597,-2.6585,-2.6574,-2.6575,-2.658,-2.6576,-2.6577,-2.6568,-2.6592,-2.6595,-2.6597,-2.6605,-2.6609,-2.657,-2.6569,-2.6569,-2.6569,0,-2.6698,-2.6693,-2.6694,-2.668,-2.6675,-2.6673,-2.6657,-2.6655,-2.6644,-2.6634,-2.6633,-2.662,-2.6611,-2.6611,-2.6599,-2.6611,-2.6607,-2.6596,-2.6581,-2.6603,-2.661,-2.6613,-2.6572,-2.6571,-2.6571,-2.657,0,0,-2.6725,-2.6705,-2.6705,-2.6701,-2.6685,-2.6681,-2.6682,-2.6674,-2.6673,-2.6664,-2.6664,-2.6657,-2.6648,-2.6642,-2.6631,-2.6635,-2.6655,-2.6624,-2.6623,-2.6631,-2.667,-2.6678,-2.6682,-2.6647,-2.6647,-2.6648,-2.6671,0,-2.6739,-2.6736,-2.6723,-2.6725,-2.6722,-2.6706,-2.6706,-2.6698,-2.6689,-2.6687,-2.6678,-2.6674,-2.6661,-2.6658,-2.6661,-2.6651,-2.6662,-2.665,-2.6649,-2.6649,-2.6653,-2.6686,-2.6694,-2.6716,-2.6674,-2.6675,-2.6675,0,-2.6754,-2.6748,-2.675,-2.6739,-2.6737,-2.6737,-2.6731,-2.6728,-2.6721,-2.6714,-2.671,-2.6699,-2.67,-2.6687,-2.6691,-2.6683,-2.6682,-2.6678,-2.6679,-2.6677,-2.6663,-2.6687,-2.6723,-2.6727,-2.6679,-2.6679,-2.6678,0,-2.6776,-2.6768,-2.6769,-2.6765,-2.6751,-2.6753,-2.6748,-2.6739,-2.6737,-2.6732,-2.6731,-2.6727,-2.6725,-2.6723,-2.6712,-2.6703,-2.6718,-2.6703,-2.6714,-2.6714,-2.6717,-2.6717,-2.6754,-2.6716,-2.6716,-2.6716,-2.6716,0,-2.6793,-2.6795,-2.6779,-2.6779,-2.6783,-2.6769,-2.6773,-2.6767,-2.6761,-2.6761,-2.6748,-2.6749,-2.6734,-2.6734,-2.6726,-2.6731,-2.673,-2.6727,-2.6724,-2.6728,-2.6729,-2.6727,-2.6725,-2.6717,-2.6717,-2.6716,-2.6716,0,-2.6816,-2.6805,-2.6806,-2.6795,-2.6792,-2.6796,-2.6787,-2.6788,-2.6781,-2.6782,-2.6782,-2.677,-2.6771,-2.676,-2.6757,-2.6752,-2.6762,-2.6757,-2.6765,-2.6763,-2.6775,-2.6775,-2.6813,-2.6819,-2.6777,-2.6777,-2.6777,0,-2.6827,-2.6829,-2.6819,-2.6819,-2.6815,-2.6814,-2.6813,-2.6801,-2.6801,-2.6795,-2.6798,-2.6797,-2.6796,-2.6798,-2.679,-2.679,-2.6785,-2.6799,-2.6784,-2.6789,-2.6787,-2.6787,-2.6788,-2.6801,-2.6802,-2.6802,-2.6802,0,-2.6849,-2.6845,-2.6843,-2.6841,-2.684,-2.6838,-2.6834,-2.6836,-2.6823,-2.6824,-2.6824,-2.6824,-2.6824,-2.6824,-2.6823,-2.6819,-2.681,-2.6808,-2.681,-2.6814,-2.6819,-2.6818,-2.6773,-2.6806,-2.6806,-2.6806,-2.6805,-2.6805,-2.6868,-2.687,-2.6865,-2.6865,-2.6862,-2.686,-2.6862,-2.6857,-2.6857,-2.6856,-2.685,-2.6852,-2.6849,-2.6847,-2.6845,-2.6848,-2.6842,-2.6845,-2.6846,-2.6848,-2.6851,-2.6819,-2.6848,-2.6848,-2.6848,-2.6848,-2.6848,0,-2.689,-2.6887,-2.6887,-2.6884,-2.6886,-2.6878,-2.6875,-2.6877,-2.6879,-2.6877,-2.6878,-2.6881,-2.6883,-2.6877,-2.6879,-2.6883,-2.6879,-2.6884,-2.6884,-2.6884,-2.6855,-2.6853,-2.6888,-2.6888,-2.6888,-2.6888,-2.6888,-2.6888,-2.6901,-2.6906,-2.6903,-2.6907,-2.6905,-2.6907,-2.6907,-2.6907,-2.6906,-2.691,-2.6912,-2.6909,-2.6907,-2.6909,-2.6912,-2.691,-2.6912,-2.6919,-2.6916,-2.6889,-2.6885,-2.6882,-2.688,-2.6919,-2.6919,-2.6944,-2.6945,-2.6945]},{"header":{"parameterUnit":"m.s-1","parameterCategory":1,"la1":30.2991,"la2":30.254,"lo1":-89.0895,"lo2":-89.0444,"dx":0.0017,"dy":0.0017,"nx":28,"ny":28,"refTime":"2022-11-07T09:00:00:Z","depth":0,"parameterNumber":3,"parameterNumberName":"V-component_of_WINDS"},"data":[0,0,0,0,0,0,0,0,0,0,0,0,0,0,0,0,0,0,0,0,0,0,0,0,0,0,0,0,0,0,0,0,0,0,0,0,0,0,0,0,0,0,0,0,0,0,0,0,0,0,0,0,0,0,0,0,0,0,0.4396,0.4395,0,0.4347,0.4347,0.4346,0.4381,0.4383,0.4384,0.4386,0.4331,0.4328,0.4326,0,0,0,0,0,0,0,0,0,0,0,0,0,0.4514,0.4511,0.4396,0.4395,0.4394,0.4347,0.4347,0.4346,0.4381,0.4383,0.4385,0.4387,0.4332,0.4329,0.4325,0,0,0,0,0,0,0,0,0,0,0,0,0,0.4464,0.4511,0.4396,0.4406,0.4407,0.4348,0.4347,0.4346,0.4381,0.4383,0.4385,0.4388,0.4333,0.4329,0.4325,0.4251,0,0,0.4311,0.431,0,0,0,0,0,0,0,0,0.4466,0.4459,0.4405,0.4405,0.4406,0.4373,0.4369,0.4314,0.438,0.439,0.4386,0.4389,0.4343,0.4338,0.4324,0.4248,0.4246,0.4311,0.4308,0.4307,0.4305,0,0,0,0,0,0,0,0.447,0.4461,0.4376,0.4404,0.4405,0.4412,0.4408,0.4358,0.4354,0.439,0.4392,0.4386,0.4343,0.4328,0.4322,0.4245,0.4311,0.4307,0.4305,0.4303,0.4107,0.4105,0,0,0,0,0,0,0.4473,0.4464,0.4378,0.4375,0.4443,0.4408,0.4403,0.4381,0.4355,0.4353,0.4384,0.4388,0.4334,0.4328,0.4321,0.4232,0.4307,0.4303,0.43,0.411,0.4106,0.4104,0,0,0,0,0,0,0.4475,0.4465,0.438,0.442,0.441,0.4404,0.4379,0.4379,0.4363,0.4351,0.4349,0.4369,0.4336,0.4327,0.4268,0.423,0.4301,0.4297,0.4113,0.4109,0.4105,0.4054,0,0,0,0,0,0,0.4479,0.4466,0.4438,0.4419,0.4408,0.4329,0.4376,0.4376,0.4356,0.4361,0.4336,0.4334,0.4337,0.4275,0.4264,0.4226,0.4293,0.4116,0.4111,0.4106,0.4059,0.4049,0.404,0,0,0,0,0,0.4483,0.4424,0.4437,0.4426,0.4374,0.4327,0.432,0.4326,0.4353,0.4325,0.4317,0.4335,0.4237,0.4268,0.4257,0.4216,0.4118,0.4112,0.4107,0.4063,0.4051,0.404,0,0,0,0,0,0,0.4437,0.4422,0.4435,0.437,0.435,0.4333,0.4297,0.4312,0.4283,0.4288,0.4295,0.4289,0.4227,0.4217,0.4252,0.4144,0.4182,0.4173,0.4153,0.4141,0.4131,0.4134,0.429,0,0,0,0,0,0.4419,0.4384,0.4373,0.4316,0.4306,0.4303,0.4283,0.429,0.4268,0.4259,0.4247,0.4224,0.4189,0.4164,0.4131,0.4059,0.4053,0.4025,0.4016,0.4008,0.4,0.396,0.3947,0.4085,0.4085,0.4085,0,0,0.4382,0.437,0.4347,0.4307,0.4292,0.4254,0.4296,0.4254,0.4225,0.4252,0.4196,0.4187,0.4162,0.4096,0.4067,0.4085,0.3961,0.4001,0.3995,0.399,0.3953,0.394,0.3928,0.4081,0.4081,0.4082,0,0,0.4294,0.4283,0.4234,0.4219,0.4197,0.4196,0.4184,0.4166,0.4161,0.4106,0.4126,0.4091,0.403,0.4011,0.3993,0.3901,0.3916,0.389,0.384,0.3801,0.379,0.378,0.3746,0.3734,0.3883,0.3882,0.3882,0,0.425,0.4195,0.4206,0.4163,0.4144,0.417,0.412,0.4104,0.4071,0.4057,0.4079,0.4003,0.3988,0.3918,0.3896,0.3881,0.3867,0.3891,0.3791,0.3782,0.3773,0.374,0.3727,0.3879,0.388,0.388,0.388,0,0.4141,0.4103,0.4066,0.4036,0.4013,0.3967,0.3969,0.3945,0.3954,0.3951,0.3894,0.3877,0.3841,0.3825,0.3833,0.3756,0.3768,0.3791,0.3829,0.3756,0.3725,0.3713,0.3875,0.3876,0.3877,0.3878,0,0,0.402,0.3999,0.3985,0.3971,0.395,0.392,0.3875,0.3841,0.3819,0.3796,0.3757,0.3706,0.3727,0.3707,0.3713,0.3679,0.3606,0.3706,0.3705,0.3686,0.3519,0.35,0.3486,0.3617,0.3615,0.3613,0.352,0,0.393,0.3853,0.3862,0.3787,0.3751,0.3776,0.3737,0.3719,0.3715,0.3683,0.3679,0.3641,0.3673,0.3661,0.3629,0.3621,0.3572,0.3629,0.3579,0.3577,0.3582,0.347,0.345,0.3363,0.3509,0.3507,0.3505,0,0.3814,0.3789,0.3711,0.3696,0.3681,0.3646,0.3616,0.3586,0.3566,0.3565,0.3544,0.3557,0.351,0.3552,0.3486,0.3525,0.3505,0.3499,0.3496,0.3489,0.3534,0.3458,0.3336,0.3322,0.3487,0.3488,0.3489,0,0.3731,0.3678,0.3625,0.3613,0.3595,0.3569,0.3559,0.3542,0.3522,0.3495,0.3482,0.345,0.3432,0.3406,0.3409,0.3439,0.3342,0.3384,0.3339,0.3339,0.3315,0.3316,0.3185,0.3306,0.3307,0.3307,0.3307,0,0.3628,0.3579,0.3588,0.3554,0.35,0.3511,0.3457,0.3451,0.3435,0.34,0.3421,0.3387,0.3394,0.3361,0.3363,0.3308,0.33,0.3297,0.3298,0.3294,0.3294,0.3279,0.3284,0.3303,0.3304,0.3305,0.3306,0,0.3525,0.3529,0.3472,0.3461,0.3457,0.3417,0.3406,0.3374,0.3373,0.3329,0.3319,0.3317,0.3278,0.328,0.3236,0.3238,0.3169,0.3178,0.3176,0.3177,0.3131,0.3135,0.2984,0.2965,0.3101,0.31,0.3099,0,0.3458,0.3421,0.3406,0.3385,0.3375,0.334,0.332,0.333,0.3308,0.3284,0.3254,0.3218,0.319,0.3127,0.3121,0.3087,0.3094,0.3044,0.3089,0.3086,0.3091,0.3092,0.3087,0.3034,0.3032,0.3031,0.303,0,0.3337,0.3342,0.3312,0.3284,0.326,0.3238,0.3217,0.3199,0.3207,0.3181,0.3143,0.3121,0.3078,0.3041,0.3009,0.2998,0.3014,0.3017,0.3004,0.2998,0.2998,0.2995,0.315,0.3019,0.302,0.3021,0.3022,0.3022,0.3248,0.3217,0.3201,0.3168,0.3155,0.3136,0.3105,0.3102,0.3071,0.3037,0.3046,0.3003,0.2984,0.2944,0.293,0.2896,0.2913,0.2896,0.2891,0.2885,0.2879,0.3006,0.289,0.2891,0.2891,0.2891,0.2892,0,0.3127,0.3119,0.3089,0.3061,0.3035,0.3056,0.3035,0.3011,0.2974,0.2956,0.2929,0.2885,0.285,0.2842,0.2809,0.2782,0.2789,0.2773,0.2773,0.277,0.2866,0.288,0.2768,0.2768,0.2768,0.2768,0.2768,0.2768,0.306,0.3008,0.3011,0.2952,0.2944,0.2903,0.2889,0.2872,0.2858,0.2809,0.2781,0.2777,0.2763,0.2729,0.2697,0.2696,0.2681,0.2662,0.2663,0.2752,0.2764,0.2775,0.2788,0.2659,0.2659,0.257,0.2569,0.2568]}]]